Location: Baard
(53.1421°N, 5.6705°E)
Time: 12:07:06
(UTC+00:00)

Daily predictions for brighter satellites

Satellite Brightness Start Highest point End
(mag) Time Altitude Azimuth Time Altitude Azimuth Time Altitude Azimuth
ARGOS 4.4 16:47:09 10° E 16:50:59 20° NE 16:54:48 10° N
SL-24 R/B 4.4 16:46:38 10° SSE 16:51:14 82° ENE 16:56:26 10° NNW
Cosmos 1626 Rocket 4.3 16:47:50 10° SSE 16:51:45 32° E 16:55:42 10° NNE
Cosmos 923 Rocket 4.2 16:46:31 10° NNW 16:51:54 83° WSW 16:57:12 10° SSE
Cosmos 2263 Rocket 3.3 16:47:39 10° WSW 16:53:00 41° NW 16:58:22 10° NNE
RESURS DK-1 4.4 16:50:11 10° W 16:53:21 21° NW 16:56:32 10° NNE
CZ-4C R/B 2.8 16:51:34 10° NNE 16:54:44 63° ESE 16:57:55 10° S
Cosmos 1898 Rocket 4.3 16:50:18 10° SSE 16:54:50 31° ESE 16:59:23 10° NE
Cosmos 1626 4.2 16:51:47 10° SW 16:55:01 28° WNW 16:58:16 10° N
TELKOM 3 4.0 16:53:43 10° WSW 16:55:41 33° S 16:57:45 10° ESE
Cosmos 1680 Rocket 3.5 16:50:55 10° NNW 16:56:12 85° ENE 17:01:25 10° SSE
Meteor 2-10 Rocket 4.0 16:53:34 10° NNW 16:58:59 71° W 17:04:09 10° S
Nadezhda 4 Rocket 4.1 16:55:17 10° S 17:01:20 58° E 17:07:21 10° NNE
CZ-4B R/B 2.7 17:00:31 10° NE 17:03:06 21° E 17:05:37 10° SE
NOAA 12 4.4 16:58:49 10° S 17:04:03 73° WSW 17:09:20 10° NNW
Landsat 5 3.2 17:00:32 10° NNE 17:04:26 79° ESE 17:08:16 10° SSW
MOS 1 Rocket 4.3 17:01:18 10° NE 17:04:42 22° E 17:08:07 10° SE
CZ-2D R/B 3.7 17:03:40 10° SE 17:07:14 39° ENE 17:10:50 10° N
Cosmos-2242 3.9 17:03:59 10° N 17:07:42 28° ENE 17:11:25 10° SE
NOSS 3-1 (C) 4.3 17:02:58 10° NW 17:10:11 75° SW 17:18:42 10° SE
NOAA 11 4.4 17:05:54 10° SSE 17:11:26 82° WSW 17:16:58 10° NNW
COSMO-SKYMED 1 3.4 17:08:19 10° NNE 17:12:12 30° E 17:16:03 10° SSE
BREEZE-M DEB (TANK) 2.9 17:12:38 10° WSW 17:14:53 36° S 17:17:05 10° ESE
Aureole 3 2.7 17:12:32 10° NNW 17:15:43 81° W 17:18:41 10° S
Cosmos 1937 Rocket 4.2 17:12:41 10° SSE 17:17:28 35° ESE 17:22:16 10° NE
Okean 1-7 Rocket 3.7 17:14:49 10° SSW 17:19:24 85° W 17:24:00 10° N
USA 290 2.4 17:16:48 10° NNW 17:19:55 45° ENE 17:22:59 10° SE
Cosmos 1833 Rocket 2.6 17:18:03 10° NNW 17:23:41 70° NE 17:29:17 10° SE
NOSS 2-1 (C) 3.4 17:21:41 10° SSW 17:24:49 42° SE 17:27:19 16° ENE
Cosmos 2221 4.2 17:24:28 10° NNE 17:26:47 14° ENE 17:26:47 14° ENE
CZ-4 R/B 4.5 17:23:10 10° SSE 17:27:13 56° ENE 17:31:19 10° N
H-2A R/B 2.1 17:25:09 10° NNE 17:29:36 89° NW 17:33:54 10° SSW
H-2A R/B 2.4 17:24:58 10° SE 17:29:47 43° ENE 17:34:44 10° N
Cosmos 2344 4.3 17:21:06 10° NW 17:29:58 88° NE 17:42:18 10° SE
NOSS 2-1 (D) 3.2 17:27:33 10° SSW 17:30:44 48° SE 17:33:06 18° ENE
Meteor 1-21 Rocket 4.1 17:25:32 10° S 17:31:03 77° E 17:36:41 10° NNE
USA 229 DEB 4.2 17:24:30 10° NW 17:31:43 75° SW 17:39:20 10° SE
USA 229 4.2 17:24:36 10° NW 17:31:49 75° SW 17:39:27 10° SE
Cosmos 1939 Rocket 3.0 17:27:53 10° SSE 17:31:58 82° WSW 17:36:00 10° NNW
Cosmos 389 Rocket 3.9 17:29:27 10° NNE 17:31:59 18° ENE 17:32:01 18° ENE
Helios 1A Rocket 3.6 17:28:36 10° SE 17:32:18 32° ENE 17:36:02 10° N
SeaSat 1 3.2 17:28:41 10° NNE 17:33:28 50° NW 17:38:13 10° WSW
CZ-3B R/B 2.4 17:31:28 10° W 17:33:49 51° SSW 17:39:42 10° SE
CSL-04 DEB 4.5 17:30:08 10° NNE 17:34:14 57° ESE 17:38:12 10° S
Cosmos 44 3.3 17:30:01 10° SW 17:34:55 78° SE 17:39:30 13° NE
Cosmos 1602 Rocket 3.6 17:30:52 10° S 17:35:10 60° E 17:39:31 10° NNE
Cosmos 2026 Rocket 4.1 17:30:38 10° SSE 17:36:33 52° E 17:42:37 10° NNE
Feng Yun 1-1 Rocket 4.3 17:31:50 10° SSE 17:37:22 89° ENE 17:43:04 10° NNW
SJ 16-02 2.0 17:33:53 10° SW 17:38:12 57° WNW 17:42:34 10° NNE
Cosmos 1689 Rocket 4.1 17:41:34 13° SE 17:41:34 13° SE 17:42:13 10° SE
Cosmos 1553 Rocket 4.2 17:34:06 10° N 17:40:21 51° ENE 17:46:29 10° SSE
YAOGAN 1 2.7 17:37:07 10° SE 17:41:17 49° ENE 17:45:29 10° N
Aureole 3 Rocket 2.3 17:38:16 10° N 17:41:25 67° ENE 17:45:11 10° SSE
Cosmos 990 Rocket 3.9 17:36:30 10° SSW 17:41:42 78° ESE 17:46:53 10° NNE
COSMOS 2406 3.3 17:37:14 10° NNW 17:43:04 83° WSW 17:48:49 10° SSE
SJ-11-01 4.5 17:38:40 10° SE 17:43:08 46° ENE 17:47:36 10° N
Cosmos 1844 Rocket 3.1 17:37:50 10° SW 17:43:28 62° NW 17:49:04 10° NNE
Cosmos 2082 Rocket 2.3 17:37:48 10° NNW 17:43:30 59° NE 17:49:07 10° SE
Cosmos 1818 4.0 17:39:41 10° WSW 17:45:04 59° NW 17:49:56 13° NE
Meteor 1-27 4.3 17:41:45 10° N 17:47:16 53° ENE 17:52:42 10° SSE
NOSS 3-1 (A) 4.3 17:40:04 10° NW 17:47:20 72° SW 17:55:50 10° SSE
Cosmos 1844 4.0 17:41:47 10° SW 17:47:29 69° NW 17:53:16 10° NNE
HJ-1C 4.1 17:47:04 19° ESE 17:48:54 32° ENE 17:51:56 10° N
X-37B 3.2 17:46:56 10° SW 17:49:02 16° SSW 17:51:07 10° SSE
Cosmos 1703 3.2 17:45:16 10° S 17:49:09 87° W 17:53:04 10° N
Cosmos 1825 Rocket 4.0 17:46:13 10° SSE 17:50:16 37° E 17:54:22 10° NNE
deb Kosmos-1763 4.2 17:46:49 10° NNW 17:50:19 46° ENE 17:52:51 17° SE
Cosmos 1812 Rocket 3.8 17:46:11 10° NNW 17:50:35 72° W 17:54:53 10° S
IRS-1C Rocket 4.1 17:45:35 10° SSE 17:50:51 87° ENE 17:56:10 10° NNW
NOSS 2-2 (E) 4.4 17:46:02 10° NW 17:50:53 55° NE 17:56:04 16° ESE
ISS -3.6 17:48:56 10° W 17:52:19 69° S 17:53:50 30° ESE
ATLAS 2AS CENTAUR R/B 3.8 17:48:31 10° WNW 17:55:47 38° N 18:00:55 18° NE
Okean O Rocket 3.6 17:52:56 10° SSW 17:56:55 32° W 18:00:54 10° NNW
Cosmos 2227 Rocket 4.4 17:54:55 10° NW 17:57:32 13° N 18:00:10 10° NNE
ATLAS 5 CENTAUR R/B 3.2 17:54:02 10° WNW 17:57:56 27° N 18:00:57 16° NE
Iridium 4 Rocket 3.4 17:53:18 10° N 17:58:50 82° E 18:03:50 10° S
SKYMED 2 3.5 17:56:06 10° NNE 18:00:29 82° ESE 18:04:51 10° SSW
ERS-2 2.4 17:58:38 24° NE 18:00:30 45° E 18:04:00 10° S
CZ-4 R/B 1.2 17:56:55 10° SSE 18:00:56 83° ENE 18:04:54 10° NNW
CSL-04 Rocket 3.7 18:00:03 10° SE 18:05:24 57° ENE 18:10:50 10° N
S3M 4.0 18:00:54 10° N 18:06:54 54° ENE 18:12:53 10° SSE
CZ-4C R/B 3.5 18:02:28 10° WNW 18:07:58 34° N 18:11:46 21° NE
Okean-O 2.5 18:04:00 10° SSE 18:08:27 87° ENE 18:12:55 10° NNW
USA 234 3.4 18:05:52 24° ENE 18:10:00 64° N 18:16:28 10° W
Ariane Rocket 3.9 18:11:25 27° ENE 18:11:25 27° ENE 18:15:39 10° N
Cosmos 1428 Rocket 4.5 18:05:52 10° S 18:12:11 85° E 18:18:32 10° NNE
Cosmos 1340 3.1 18:09:00 10° SSW 18:12:43 62° WNW 18:16:28 10° N
Cosmos 1346 Rocket 2.7 18:09:21 10° S 18:13:12 57° E 18:15:12 26° NNE
Cosmos 2278 Rocket 2.2 18:08:05 10° S 18:13:38 57° ESE 18:17:11 22° NE
Cosmos 1655 Rocket 4.3 18:08:02 10° SSE 18:13:46 41° E 18:19:30 10° NNE
Cosmos 858 Rocket 4.5 18:10:20 10° SSW 18:15:38 88° ESE 18:20:22 13° NNE
Cosmos 1953 Rocket 3.7 18:12:34 10° SSE 18:16:42 45° E 18:17:58 35° NE
CZ-2C R/B 3.9 18:11:42 10° S 18:17:10 59° W 18:22:54 10° NNW
SAR-Lupe-4 3.5 18:17:50 49° ENE 18:18:27 58° ESE 18:21:59 10° S
USA 281 4.3 18:17:58 23° NE 18:19:24 25° NE 18:24:32 10° NNW
SWARM A 4.4 18:16:08 10° S 18:18:52 51° SE 18:18:52 51° SE
Cosmos 2297 Rocket 4.3 18:18:42 10° NNW 18:21:11 13° N 18:23:18 11° NNE
Cosmos 2292 Rocket 4.0 18:17:11 10° SSE 18:20:41 37° SE 18:20:41 37° SE
Genesis I 4.0 18:18:54 10° NW 18:22:29 35° NNE 18:22:29 35° NNE
COSMOS 2455 4.1 18:17:30 10° W 18:23:00 35° NNW 18:27:33 14° NNE
Cosmos 44 Rocket 4.3 18:19:29 10° S 18:23:19 29° SE 18:23:19 29° SE
NOSS 2-1 (E) 3.2 18:22:37 10° WSW 18:25:55 65° NW 18:26:47 46° NNE
DMSP B5D1-3 4.5 18:22:04 10° NNE 18:27:07 58° ESE 18:32:08 10° S
Cosmos 1842 Rocket 4.1 18:23:56 10° N 18:27:17 38° NE 18:27:17 38° NE
Meteor 2-2 Rocket 4.4 18:22:34 10° N 18:28:27 57° ENE 18:34:20 10° SSE
Cosmos 1869 3.1 18:25:13 10° N 18:29:07 69° ENE 18:30:11 45° SE
NOSS 2-2 (D) 4.2 18:25:27 10° NW 18:30:24 73° NE 18:33:29 32° ESE
ARGOS 3.1 18:25:11 10° SSE 18:30:34 88° ENE 18:36:01 10° NNW
PSLV R/B 3.9 18:28:24 16° NNE 18:31:48 87° ESE 18:36:00 10° SSW
Meteor 2-19 Rocket 4.4 18:26:52 10° S 18:33:02 87° W 18:39:15 10° N
Transit 2A Rocket 4.4 18:29:16 10° NW 18:33:45 65° NE 18:34:18 58° E
SAR-Lupe-1 3.9 18:34:04 66° NNE 18:34:33 87° ESE 18:38:08 10° SSW
CZ-4B R/B 3.1 18:32:22 10° N 18:35:25 33° WNW 18:38:21 10° SW
Cosmos 468 4.5 18:31:06 10° NNW 18:36:24 85° WSW 18:41:13 13° SSE
Cosmos 1898 Rocket 4.2 18:31:36 10° SW 18:36:43 51° WNW 18:41:26 12° NNE
CZ-2C R/B 2.9 18:33:46 25° NE 18:36:43 47° E 18:42:08 10° S
Cosmos 372 Rocket 3.9 18:32:04 10° SSW 18:37:16 77° ESE 18:39:58 30° NNE
Cosmos 2263 Rocket 4.4 18:35:00 10° WNW 18:38:31 16° NNW 18:42:03 10° NNE
Cosmos 494 Rocket 3.8 18:35:12 10° NNW 18:40:23 76° ENE 18:42:29 37° SE
MOS 1 Rocket 3.9 18:39:06 10° N 18:43:15 49° WNW 18:47:24 10° SW
Cosmos-2242 4.4 18:41:22 10° NNW 18:45:22 39° W 18:49:23 10° SSW
Cosmos 1048 Rocket 4.1 18:40:15 10° NNW 18:45:23 75° WSW 18:49:36 15° SSE
Cosmos 2150 Rocket 4.2 18:41:32 10° S 18:45:58 49° SE 18:45:58 49° SE
COSMO-SKYMED 1 4.0 18:44:24 10° N 18:48:27 38° WNW 18:52:28 10° SW
MOS 1 4.4 18:51:16 52° E 18:51:38 53° ENE 18:57:11 10° N
Resurs 01 Rocket 4.2 19:00:28 10° N 19:00:28 10° N 19:00:31 10° N
Cosmos 909 Rocket 4.2 18:52:18 10° NW 18:58:38 63° NE 19:00:09 51° E
Cosmos 1937 Rocket 4.4 18:54:12 10° SW 18:59:20 47° NW 19:03:18 16° NNE
SL-08 RB Rocket 3.9 18:59:18 21° S 19:02:17 67° WSW 19:06:46 10° NNW
Cosmos 2221 3.3 19:00:42 10° N 19:03:42 43° N 19:03:42 43° N
Cosmos 389 Rocket 4.0 19:03:31 10° NNW 19:05:56 34° NW 19:05:56 34° NW
H-2A R/B 3.6 19:04:39 10° SSW 19:09:19 35° W 19:14:09 10° NNW
Cosmos 1809 Rocket 4.3 19:05:34 10° S 19:11:42 87° E 19:17:55 10° NNE
Cosmos 2298 Rocket 3.9 19:08:30 10° SSW 19:13:35 81° S 19:13:35 81° S
Cosmos 2266 Rocket 3.8 19:09:39 10° S 19:15:52 85° E 19:22:02 10° NNE
SJ 16-02 4.1 19:15:50 10° WNW 19:17:48 13° NW 19:19:46 10° NNW
In-Cosmos 22 Rocket 4.3 19:19:52 10° SSW 19:25:38 74° WNW 19:29:34 21° N
Cosmos 2082 Rocket 3.8 19:22:18 10° NW 19:27:19 32° WSW 19:32:17 10° SSW
ISS -0.9 19:25:42 10° W 19:26:49 18° W 19:26:49 18° W
Cosmos 1269 Rocket 4.4 19:24:46 10° NNW 19:29:03 59° NNW 19:29:03 59° NNW
NOSS 3-4 (A) 4.1 19:24:18 10° NW 19:30:37 47° NNE 19:30:38 47° NNE
NOSS 3-4 (C) 4.1 19:24:24 10° NW 19:30:43 46° NNE 19:30:44 46° NNE
Cosmos 1241 Rocket 4.5 19:27:09 10° SSW 19:33:16 76° S 19:33:16 76° S
ATLAS 5 CENTAUR R/B 3.6 19:39:33 10° NW 19:42:29 26° NNW 19:42:29 26° NNW
Cosmos 2227 Rocket 4.3 19:40:37 10° NNW 19:42:53 15° N 19:42:53 15° N
Cosmos 2315 Rocket 4.3 19:38:25 10° NNW 19:44:35 64° W 19:46:33 43° SSW
ATLAS 2AS CENTAUR R/B 3.4 19:41:03 10° NW 19:48:21 46° NNE 19:48:21 46° NNE
Ariane Rocket 4.0 19:51:36 41° NW 19:51:36 41° NW 19:55:07 10° NNW
USA 234 3.2 19:53:13 78° NNW 19:53:13 78° NNW 19:59:26 10° WNW
CZ-4C R/B 3.3 19:51:30 10° NW 19:56:57 48° N 19:56:57 48° N
Cosmos 2278 Rocket 3.5 19:52:46 10° WSW 19:58:01 37° NW 19:59:05 34° NNW
USA 281 3.8 20:04:50 49° N 20:04:50 49° N 20:09:35 10° NNW
Cosmos 2297 Rocket 4.4 20:03:20 10° NNW 20:05:07 16° N 20:05:07 16° N
CZ-2C R/B 4.0 20:11:50 10° N 20:16:55 37° WNW 20:22:01 10° SW
ATLAS 2AS CENTAUR R/B 4.5 21:32:31 10° NW 21:35:47 28° NW 21:35:47 28° NW
